sat.trackr.live / text

‹ back to catalog

HULIANWANG DIGUI-177

NORAD 69580 · 2026-137J

PAYLOAD ACTIVE UNKNOWN

§ Identity

Operator
Country
PRC
Launch date
2026-06-17
Launch site
WSC
Launch vehicle
Mass (kg)
RCS (m²)

External: N2YO · Heavens-Above · Gunter

§ Orbital elements

Epoch: 2026-09-20T01:10:45.702912Z

Period
108.33 min
Inclination
49.9975°
Eccentricity
0.0000247
Mean motion
13.29326253 rev/d
Perigee alt
1,149.1 km
Apogee alt
1,149.5 km
Semi-major
7,527.4 km
B*
1.0002e-4
RAAN
255.3111°
Arg perigee
353.2049°
Mean anomaly
6.8820°
Rev number
1,296

§ Raw data

HULIANWANG DIGUI-1771 69580U 26137J   26263.04914008 -.00000078  00000+0  10002-3 0  99932 69580  49.9975 255.3111 0000247 353.2049   6.8820 13.29326253 12968

JSON: /api/v1/satellites/69580 · /tle

For live sub-satellite position, see the globe view (requires WebGL).

§ Visibility from observer

Set your observer location to see the next 7 days of passes ≥ 10°. The values pass through the URL so the page stays shareable.

No JS? Fill the form by hand. The geolocation button needs JavaScript.